[[{"header":{"parameterUnit":"m.s-1","parameterCategory":1,"la1":30.2991,"la2":30.254,"lo1":-89.0895,"lo2":-89.0444,"dy":0.0017,"dx":0.0017,"nx":28,"ny":28,"refTime":"2025-09-02T03:00:00:Z","depth":0,"parameterNumber":2,"parameterNumberName":"U-component_of_WINDS"},"data":[0,0,0,0,0,0,0,0,0,0,0,0,0,0,0,0,0,0,0,0,0,0,0,0,0,0,0,0,0,0,0,0,0,0,0,0,0,0,0,0,0,0,0,0,0,0,0,0,0,0,0,0,0,0,0,0,0,0,-2.2135,-2.2134,0,-2.2087,-2.2087,-2.2086,-2.1973,-2.1971,-2.1969,-2.1966,-2.1922,-2.1923,-2.1924,0,0,0,0,0,0,0,0,0,0,0,0,0,-2.2133,-2.2134,-2.2135,-2.2134,-2.2134,-2.2087,-2.2087,-2.2086,-2.1974,-2.1971,-2.1968,-2.1965,-2.1921,-2.1923,-2.1924,0,0,0,0,0,0,0,0,0,0,0,0,0,-2.2115,-2.2134,-2.2135,-2.2072,-2.2066,-2.2087,-2.2087,-2.2086,-2.1974,-2.1971,-2.1967,-2.1964,-2.1921,-2.1922,-2.1924,-2.2004,0,0,-2.1928,-2.1929,0,0,0,0,0,0,0,0,-2.2116,-2.2115,-2.2082,-2.2076,-2.207,-2.2032,-2.2069,-2.2058,-2.1975,-2.2009,-2.1966,-2.1962,-2.1962,-2.196,-2.1959,-2.2002,-2.2,-2.1929,-2.193,-2.193,-2.1931,0,0,0,0,0,0,0,-2.2117,-2.2116,-2.2116,-2.2082,-2.2074,-2.2048,-2.2041,-2.2067,-2.2006,-2.2006,-2.1998,-2.1993,-2.1958,-2.1957,-2.1957,-2.1999,-2.1929,-2.193,-2.1931,-2.1931,-2.2107,-2.211,0,0,0,0,0,0,-2.2127,-2.2118,-2.2117,-2.2115,-2.2084,-2.2051,-2.2043,-2.2048,-2.2005,-2.1995,-2.1997,-2.1988,-2.1957,-2.1955,-2.1955,-2.2045,-2.193,-2.1932,-2.1932,-2.2103,-2.2107,-2.2111,0,0,0,0,0,0,-2.2128,-2.2128,-2.2119,-2.2114,-2.2111,-2.2054,-2.2061,-2.2049,-2.2048,-2.1998,-2.1987,-2.2007,-2.1954,-2.1953,-2.1992,-2.2042,-2.1932,-2.1934,-2.2098,-2.2104,-2.2109,-2.2228,0,0,0,0,0,0,-2.2128,-2.2129,-2.2158,-2.2116,-2.2112,-2.2157,-2.2064,-2.2051,-2.2051,-2.204,-2.2005,-2.1996,-2.1951,-2.1991,-2.1994,-2.2042,-2.1935,-2.2094,-2.2101,-2.2108,-2.2219,-2.2237,-2.2252,0,0,0,0,0,-2.2128,-2.2193,-2.216,-2.216,-2.2146,-2.216,-2.2158,-2.2103,-2.2055,-2.2084,-2.2052,-2.1997,-2.2037,-2.1996,-2.1998,-2.2048,-2.209,-2.2099,-2.2107,-2.2212,-2.2233,-2.2251,0,0,0,0,0,0,-2.2244,-2.2187,-2.2148,-2.2202,-2.2187,-2.2141,-2.2175,-2.2128,-2.2127,-2.2116,-2.205,-2.2044,-2.2093,-2.2074,-2.203,-2.2124,-2.2055,-2.2064,-2.2133,-2.2153,-2.2169,-2.2172,-2.1936,0,0,0,0,0,-2.2275,-2.229,-2.224,-2.2292,-2.2286,-2.2233,-2.2237,-2.2196,-2.2178,-2.2171,-2.2142,-2.2128,-2.2137,-2.2144,-2.215,-2.2217,-2.2208,-2.2252,-2.2269,-2.2282,-2.2291,-2.2325,-2.2344,-2.2139,-2.2139,-2.2139,0,0,-2.2341,-2.2312,-2.2325,-2.2314,-2.2298,-2.2316,-2.2228,-2.225,-2.2263,-2.2175,-2.221,-2.2189,-2.2169,-2.2223,-2.2245,-2.2209,-2.2346,-2.2293,-2.2304,-2.2305,-2.2336,-2.2355,-2.2373,-2.2145,-2.2144,-2.2143,0,0,-2.2469,-2.2448,-2.2489,-2.2474,-2.245,-2.2414,-2.2425,-2.2386,-2.2368,-2.2402,-2.2337,-2.2352,-2.2369,-2.2358,-2.2354,-2.248,-2.243,-2.2484,-2.2569,-2.2603,-2.262,-2.2634,-2.2678,-2.2695,-2.2493,-2.2493,-2.2494,0,-2.2554,-2.2576,-2.2517,-2.2543,-2.2541,-2.2461,-2.2503,-2.2492,-2.2472,-2.2473,-2.2433,-2.2453,-2.2434,-2.2484,-2.2515,-2.2515,-2.2525,-2.2487,-2.2622,-2.2635,-2.2648,-2.269,-2.2707,-2.25,-2.2499,-2.2499,-2.2498,0,-2.2682,-2.2699,-2.2736,-2.2716,-2.2719,-2.2753,-2.27,-2.271,-2.267,-2.2639,-2.2676,-2.265,-2.2649,-2.2659,-2.262,-2.2704,-2.2682,-2.2634,-2.2562,-2.2675,-2.2713,-2.2729,-2.251,-2.2507,-2.2505,-2.2504,0,0,-2.288,-2.2828,-2.2842,-2.2833,-2.2801,-2.2814,-2.2846,-2.2844,-2.2854,-2.2843,-2.2868,-2.2885,-2.284,-2.2836,-2.2796,-2.2827,-2.2928,-2.2774,-2.2772,-2.2803,-2.3019,-2.3055,-2.3075,-2.2895,-2.2898,-2.29,-2.3021,0,-2.3,-2.3049,-2.2997,-2.3057,-2.3073,-2.2998,-2.3026,-2.3011,-2.2983,-2.2994,-2.2964,-2.2977,-2.2916,-2.2914,-2.294,-2.291,-2.2971,-2.2901,-2.2919,-2.292,-2.2925,-2.3095,-2.3133,-2.3248,-2.3035,-2.3038,-2.304,0,-2.3145,-2.314,-2.3202,-2.3167,-2.3172,-2.3197,-2.3192,-2.3203,-2.3184,-2.3162,-2.3159,-2.3111,-2.3141,-2.3073,-2.3114,-2.3068,-2.3073,-2.3059,-2.3062,-2.3061,-2.2986,-2.3098,-2.3283,-2.33,-2.3063,-2.3061,-2.3059,0,-2.3283,-2.3292,-2.333,-2.3325,-2.3285,-2.3305,-2.3289,-2.3267,-2.327,-2.3266,-2.3267,-2.3268,-2.3268,-2.3271,-2.3224,-2.3179,-2.3272,-2.32,-2.3255,-2.3256,-2.3277,-2.3276,-2.3465,-2.3282,-2.3281,-2.3281,-2.3281,0,-2.3421,-2.3462,-2.3391,-2.3415,-2.3459,-2.34,-2.3446,-2.3423,-2.3404,-2.3423,-2.336,-2.3379,-2.3317,-2.3331,-2.3295,-2.3335,-2.3336,-2.332,-2.3309,-2.3325,-2.3327,-2.3326,-2.3316,-2.3286,-2.3285,-2.3284,-2.3283,0,-2.3582,-2.3536,-2.3572,-2.3532,-2.3523,-2.3557,-2.3523,-2.3544,-2.3513,-2.3538,-2.354,-2.3492,-2.3505,-2.3459,-2.3465,-2.3441,-2.3499,-2.3476,-2.3505,-2.3498,-2.3555,-2.355,-2.375,-2.3773,-2.3576,-2.3578,-2.358,0,-2.3672,-2.3702,-2.3665,-2.3672,-2.366,-2.3673,-2.3675,-2.3619,-2.3624,-2.3606,-2.363,-2.3637,-2.3639,-2.3664,-2.363,-2.3634,-2.3611,-2.368,-2.3611,-2.3625,-2.3611,-2.361,-2.3612,-2.3694,-2.3697,-2.3699,-2.37,0,-2.3839,-2.3815,-2.3819,-2.3817,-2.3821,-2.3817,-2.3809,-2.3819,-2.3759,-2.3768,-2.378,-2.3782,-2.3787,-2.3796,-2.3793,-2.3778,-2.373,-2.3723,-2.3736,-2.3751,-2.3766,-2.3758,-2.3543,-2.3718,-2.3716,-2.3715,-2.3714,-2.3713,-2.3966,-2.3989,-2.3966,-2.3974,-2.3962,-2.3956,-2.3974,-2.3945,-2.3953,-2.3952,-2.3919,-2.3938,-2.392,-2.3911,-2.3902,-2.3916,-2.3884,-2.3903,-2.3908,-2.3913,-2.3923,-2.3765,-2.3916,-2.3915,-2.3915,-2.3914,-2.3914,0,-2.4128,-2.411,-2.4118,-2.4108,-2.4115,-2.4068,-2.4057,-2.4066,-2.4083,-2.407,-2.4074,-2.4088,-2.4096,-2.4064,-2.4067,-2.4085,-2.4064,-2.4088,-2.4086,-2.4084,-2.3951,-2.3939,-2.4106,-2.4106,-2.4106,-2.4106,-2.4106,-2.4106,-2.4213,-2.425,-2.4224,-2.4254,-2.4236,-2.4252,-2.425,-2.4245,-2.4234,-2.4252,-2.4258,-2.4237,-2.4216,-2.4218,-2.4225,-2.4215,-2.4219,-2.4252,-2.4235,-2.4112,-2.4093,-2.4075,-2.4063,-2.4253,-2.4254,-2.4365,-2.4367,-2.4367]},{"header":{"parameterUnit":"m.s-1","parameterCategory":1,"la1":30.2991,"la2":30.254,"lo1":-89.0895,"lo2":-89.0444,"dy":0.0017,"dx":0.0017,"nx":28,"ny":28,"refTime":"2025-09-02T03:00:00:Z","depth":0,"parameterNumber":3,"parameterNumberName":"V-component_of_WINDS"},"data":[0,0,0,0,0,0,0,0,0,0,0,0,0,0,0,0,0,0,0,0,0,0,0,0,0,0,0,0,0,0,0,0,0,0,0,0,0,0,0,0,0,0,0,0,0,0,0,0,0,0,0,0,0,0,0,0,0,0,2.0241,2.0241,0,2.0249,2.0249,2.0249,2.0297,2.0298,2.0299,2.0301,2.0303,2.0302,2.0301,0,0,0,0,0,0,0,0,0,0,0,0,0,2.0262,2.0262,2.0241,2.0241,2.0241,2.0249,2.0249,2.0249,2.0297,2.0298,2.03,2.0301,2.0304,2.0302,2.0301,0,0,0,0,0,0,0,0,0,0,0,0,0,2.026,2.0262,2.0241,2.0266,2.0268,2.0249,2.0249,2.025,2.0297,2.0298,2.03,2.0302,2.0304,2.0302,2.0301,2.0257,0,0,2.0296,2.0296,0,0,0,0,0,0,0,0,2.026,2.0259,2.0262,2.0264,2.0267,2.0274,2.0258,2.0252,2.0296,2.0286,2.0301,2.0303,2.0292,2.0291,2.0289,2.0257,2.0257,2.0296,2.0295,2.0295,2.0294,0,0,0,0,0,0,0,2.026,2.0259,2.0244,2.0262,2.0265,2.0276,2.0277,2.0257,2.0279,2.0287,2.029,2.0291,2.0293,2.029,2.0289,2.0257,2.0296,2.0295,2.0294,2.0293,2.0189,2.0187,0,0,0,0,0,0,2.0257,2.0259,2.0244,2.0244,2.0268,2.0274,2.0276,2.027,2.0279,2.0282,2.0289,2.0293,2.0292,2.0291,2.0289,2.0238,2.0295,2.0293,2.0292,2.0191,2.0188,2.0186,0,0,0,0,0,0,2.0258,2.0256,2.0244,2.0253,2.0252,2.0272,2.0265,2.0269,2.0266,2.0281,2.0285,2.0282,2.0293,2.0292,2.0265,2.0238,2.0292,2.0291,2.0193,2.019,2.0187,2.0134,0,0,0,0,0,0,2.0258,2.0256,2.024,2.0252,2.0251,2.022,2.0263,2.0268,2.0264,2.0269,2.0276,2.0278,2.0295,2.0267,2.0263,2.0237,2.029,2.0195,2.0191,2.0188,2.0138,2.0129,2.0122,0,0,0,0,0,2.0259,2.0223,2.0239,2.0237,2.0232,2.0218,2.0218,2.0239,2.0262,2.0245,2.0255,2.0278,2.0243,2.0264,2.026,2.0233,2.0197,2.0192,2.0188,2.0141,2.0131,2.0122,0,0,0,0,0,0,2.0205,2.0225,2.0243,2.021,2.0212,2.0226,2.0206,2.0227,2.0221,2.0226,2.0251,2.0252,2.0221,2.0225,2.0248,2.0191,2.0224,2.0218,2.0189,2.0179,2.0172,2.017,2.0289,0,0,0,0,0,2.019,2.0178,2.0196,2.0166,2.0166,2.0186,2.0181,2.0197,2.0199,2.02,2.0208,2.0208,2.0197,2.0189,2.0179,2.014,2.0141,2.0119,2.0111,2.0105,2.0099,2.0078,2.0068,2.0172,2.0172,2.0173,0,0,2.0157,2.0167,2.0158,2.0155,2.0159,2.0145,2.0186,2.017,2.0159,2.0197,2.0172,2.0178,2.018,2.0146,2.0132,2.0148,2.0071,2.01,2.0094,2.0092,2.0072,2.0062,2.0054,2.017,2.017,2.0171,0,0,2.009,2.0097,2.0073,2.0076,2.0082,2.0096,2.009,2.0101,2.0107,2.0083,2.0112,2.0099,2.0079,2.0079,2.0077,2.0012,2.0032,2.0008,1.9966,1.9945,1.9937,1.9929,1.9905,1.9896,2.0003,2.0003,2.0003,0,2.0048,2.003,2.0057,2.0039,2.0036,2.0073,2.0047,2.0049,2.005,2.0047,2.0066,2.0043,2.0047,2.0013,1.9998,1.9995,1.9988,2.0006,1.9936,1.9929,1.9923,1.9899,1.989,2.0,2.0,2.0001,2.0001,0,1.9978,1.9965,1.9944,1.9947,1.9942,1.992,1.9942,1.9934,1.9952,1.9963,1.9938,1.9944,1.9937,1.993,1.9946,1.9899,1.9909,1.9932,1.9965,1.9909,1.9887,1.9879,1.9996,1.9997,1.9998,1.9998,0,0,1.9875,1.9894,1.9886,1.9888,1.9898,1.9887,1.9867,1.9862,1.9853,1.9854,1.9836,1.982,1.9842,1.9839,1.9855,1.9837,1.9784,1.9862,1.9862,1.9846,1.973,1.9711,1.9701,1.9799,1.9797,1.9796,1.973,0,1.9809,1.9777,1.9801,1.9764,1.9751,1.9787,1.9769,1.9772,1.9783,1.9773,1.9784,1.9771,1.9802,1.98,1.9784,1.9794,1.976,1.9799,1.978,1.9779,1.9776,1.969,1.9669,1.9606,1.9721,1.972,1.9719,0,1.9728,1.9727,1.9689,1.9702,1.9698,1.9681,1.9679,1.9669,1.9674,1.9683,1.968,1.9702,1.9681,1.9716,1.9688,1.9713,1.9707,1.9711,1.9709,1.9706,1.9744,1.9682,1.9587,1.9577,1.9706,1.9707,1.9708,0,1.9655,1.9644,1.962,1.962,1.9635,1.9623,1.9628,1.9635,1.963,1.9627,1.9624,1.9619,1.9615,1.9609,1.9628,1.9652,1.9596,1.9633,1.9601,1.9601,1.9585,1.9586,1.9486,1.9586,1.9586,1.9586,1.9586,0,1.9578,1.9553,1.9587,1.9571,1.9544,1.9572,1.9544,1.9553,1.9558,1.9544,1.9575,1.9561,1.9588,1.9576,1.9591,1.9564,1.9563,1.9568,1.9571,1.9564,1.9563,1.9558,1.9562,1.9583,1.9584,1.9584,1.9585,0,1.949,1.9512,1.9488,1.9505,1.9509,1.9488,1.9502,1.9487,1.9501,1.9483,1.948,1.9501,1.9489,1.9508,1.9498,1.9508,1.947,1.9482,1.9469,1.9471,1.9438,1.944,1.9329,1.9315,1.9426,1.9425,1.9424,0,1.9439,1.942,1.9436,1.943,1.9434,1.9424,1.942,1.9447,1.9441,1.9446,1.943,1.9422,1.9416,1.9394,1.9407,1.9399,1.9409,1.9372,1.9408,1.9401,1.9406,1.9406,1.9404,1.9363,1.9362,1.936,1.936,0,1.9344,1.9356,1.935,1.9348,1.9343,1.9342,1.9344,1.9336,1.9365,1.9357,1.9346,1.9342,1.9332,1.9322,1.9318,1.9322,1.9344,1.9349,1.934,1.9331,1.9323,1.9325,1.9446,1.935,1.9351,1.9352,1.9352,1.9353,1.9271,1.9257,1.9266,1.9258,1.9262,1.9263,1.9251,1.9264,1.9256,1.9251,1.9268,1.9253,1.9258,1.9255,1.9257,1.9244,1.9261,1.9249,1.9246,1.9242,1.9236,1.9328,1.9244,1.9244,1.9244,1.9245,1.9245,0,1.9177,1.9185,1.9178,1.918,1.9173,1.9199,1.9202,1.9194,1.9181,1.9185,1.9179,1.9166,1.9157,1.917,1.9163,1.915,1.916,1.9147,1.9147,1.9147,1.9223,1.923,1.9139,1.9139,1.9139,1.9139,1.9139,1.9139,1.9127,1.9103,1.9116,1.9095,1.9103,1.909,1.9089,1.9089,1.9093,1.9078,1.9071,1.9081,1.9088,1.9082,1.9074,1.9078,1.9073,1.9055,1.9062,1.9132,1.9142,1.9152,1.9158,1.9054,1.9054,1.8988,1.8987,1.8987]}]]